User: anonymous   Login
Location: Wilsall
(45.9940°N, 110.6590°W)
Time: 10:16:50
(UTC-06:00)
Language:

GP-B - Orbit

View from above orbital plane
View from above orbital plane
View from above satellite
View from above satellite

Ground track
Ground track

The orbit data is extracted from the following two-line orbital elements,

1 28230U 04014A   15125.16337154  .00000482  00000-0  64474-4 0  9991
2 28230 089.8726 135.3570 0003328 083.1417 277.0184 14.78108229594741
Epoch (UTC): 05 May 2015 03:55:15
Eccentricity: 0.0003328
inclination: 89.8726°
perigee height: 633 km
apogee height: 637 km
right ascension of ascending node: 135.3570°
argument of perigee: 83.1417°
revolutions per day: 14.78108229
mean anomaly at epoch: 277.0184°
orbit number at epoch: 59474

The dashed part of the orbit path shows where the satellite is in the earth's shadow,  

DLR